Tracking 20066 objects as of 7-Dec-2019
HD Live streaming from Space Station
objects crossing your sky now

COSMOS 2251 DEB

Track COSMOS 2251 DEB now!
10-day predictions


NORAD ID: 34451
Int'l Code: 1993-036SU
Perigee: 694.8 km
Apogee: 795.8 km
Inclination: 74.1 °
Period: 99.6 minutes
Semi major axis: 7116 km
RCS: 0.033 m2 (small)
Launch date: June 16, 1993
Source: Commonwealth of Independent States (former USSR) (CIS)
Launch site: PLESETSK MISSILE AND SPACE COMPLEX (PKMTR)

Note: This is SATELLITE DEBRIS
aabbcc
Your satellite tracking list
Your tracking list is empty




NASA's NSSDC Master Catalog

Two Line Element Set (TLE):
1 34451U 93036SU  19340.57189227  .00000380  00000-0  11064-3 0  9992
2 34451  74.0617 297.8765 0070943 182.3740 177.7093 14.46173424566463
Source of the keplerian elements: AFSPC